Tracking 28348 objects as of 8-Dec-2023
HD Live streaming from Space Station
objects crossing your sky now

STARLINK-30447

Track STARLINK-30447 now!
10-day predictions
STARLINK-30447 is classified as:


NORAD ID: 57874
Int'l Code: 2023-144L
Perigee: 558.8 km
Apogee: 560.8 km
Inclination: 43.0 °
Period: 95.7 minutes
Semi major axis: 6930 km
RCS: Unknown
Launch date: September 16, 2023
Source: United States (US)
Launch site: AIR FORCE EASTERN TEST RANGE (AFETR)
Your satellite tracking list
Your tracking list is empty




NASA's NSSDC Master Catalog

Two Line Element Set (TLE):
1 57874U 23144L   23342.25001157 -.00199799  00000-0 -14378-1 0  9990
2 57874  43.0008  50.5244 0001431 252.1486  23.9466 15.04616133 14202
Source of the keplerian elements: AFSPC